Regional Weather Roundup
Issued by NWS

Home | Current Version | Previous Version | Text Only | Print | Product List | Glossary Off
Versions: 1 2 3 4 5 6 7 8 9 10 11 12 13 14 15 16 17 18 19 20 21 22 23 24 25 26 27 28 29 30 31 32 33 34 35 36 37 38 39 40 41 42 43 44 45 46 47 48 49 50

928
ASUS43 KFSD 160902
RWRSD

WEATHER ROUNDUP FOR SOUTH DAKOTA
NATIONAL WEATHER SERVICE SIOUX FALLS SD
300 AM CST MON JAN 16 2017

NOTE: "FAIR" INDICATES FEW OR NO CLOUDS BELOW 12,000 FEET WITH NO
SIGNIFICANT WEATHER AND/OR OBSTRUCTIONS TO VISIBILITY.


SDZ001>005-009-010-012>017-161000-
NORTHWEST AND NORTH CENTRAL SOUTH DAKOTA

CITY           SKY/WX    TMP DP  RH WIND       PRES   REMARKS
BUFFALO          N/A     15   4  61 W10       29.97R WCI   2
FAITH            N/A     11   6  81 NW14      30.04S WCI  -5
MOBRIDGE       CLOUDY    -1  -6  79 S3        30.05S
$$

SDZ012>016-024>037-041>051-057-063-072>074-161000-
SOUTHWEST AND SOUTH CENTRAL SOUTH DAKOTA

CITY           SKY/WX    TMP DP  RH WIND       PRES   REMARKS
RAPID CTY ARPT CLOUDY    24  11  57 N14       30.03S WCI  12
PIERRE         CLOUDY    10   6  84 SW3       30.09R
CUSTER         CLOUDY    23  14  68 NW3       30.00R
ELLSWORTH AFB  CLOUDY    22   9  57 CALM      30.03R
PHILIP         CLOUDY    11   7  84 W6        30.08R WCI   1
PINE RIDGE     CLOUDY    22  20  92 CALM      30.04R
SPEARFISH      FAIR      23  10  58 W9        30.05S WCI  13
WINNER         CLOUDY    20  16  84 W5        30.07R WCI  13
$$

SDZ004>011-016>023-039-040-161000-
NORTHEAST SOUTH DAKOTA

CITY           SKY/WX    TMP DP  RH WIND       PRES   REMARKS
ABERDEEN       CLOUDY     0  -6  76 CALM      30.10F
WATERTOWN      CLOUDY    13  10  88 SE5       30.08S FOG     WCI   5
BROOKINGS      CLOUDY    16  14  92 SE7       30.10S WCI   6
SISSETON         N/A     14  11  87 CALM      30.08S
$$

SDZ017-020-022-023-036>040-048>070-161000-
SOUTHEAST SOUTH DAKOTA

CITY           SKY/WX    TMP DP  RH WIND       PRES   REMARKS
SIOUX FALLS    CLOUDY    21  17  84 CALM      30.12S
HURON          CLOUDY     9   6  88 CALM      30.10F
CHAMBERLAIN    CLOUDY    19  15  82 CALM      30.09R
MITCHELL       CLOUDY    20  17  88 S6        30.12S WCI  12
YANKTON        CLOUDY    28  25  86 E3        30.12R
$$

ABBREVIATIONS USED IN REMARKS
   TC - TEMPERATURE IN CELSIUS
  WCI - WIND CHILL INDEX
   HX - HEAT INDEX
  VSB - VISIBILITY





USA.gov is the U.S. government's official web portal to all federal, state and local government web resources and services.